Home   Weather   Sterling   Past weeks
Flag for USA

Past Weather in Sterling, Virginia, USA — Yesterday and Last 2 Weeks

Now
64 °F

Overcast.


Feels Like: 64 °F
Forecast: 83 / 62 °F
Wind: 3 mph from Northwest

Location: Washington-Dulles International Airport

Current Time: May 25, 2019 at 5:13:23 am

Latest Report: May 25, 2019 at 3:52 am


Visibility: 10 mi

Pressure: 30.12 "Hg

Humidity: 81%

Dew Point: 58 °F

Location of SterlingLocation

Past Weather in Sterling — Graph

°F

Sterling Temperature Yesterday

Maximum temperature yesterday: 84 °F (at 4:52 pm)
Minimum temperature yesterday: 64 °F (at 11:52 pm)
Average temperature yesterday: 75 °F

High & Low Weather Summary for the Past Weeks

 TemperatureHumidityPressure
High89 °F (May 19, 2:52 pm)97% (May 11, 12:52 am)30.29 "Hg (May 11, 12:52 am)
Low42 °F (May 15, 5:52 am)29% (May 15, 3:52 pm)29.73 "Hg (May 12, 12:52 pm)
Average65 °F69%29.94 "Hg
* Reported May 10 3:52 am — May 25 3:52 am, Sterling. Weather by CustomWeather, © 2019

Note: Actual official high and low records may vary slightly from our data, if they occured in-between our weather recording intervals... More about our weather records

Advertising

Sterling Weather History for the Previous 24 Hours

Scroll right to see more
 ConditionsComfort  
Time TempWeatherWind HumidityBarometerVisibility
3:52 am
Sat, May 25
64 °FOvercast.3 mph81%30.12 "Hg10 mi
2:52 am62 °FPassing clouds.No wind80%30.10 "Hg10 mi
1:52 am63 °FPassing clouds.No wind78%30.10 "Hg10 mi
12:52 am63 °FPassing clouds.No wind73%30.10 "Hg10 mi
11:52 pm
Fri, May 24
64 °FPassing clouds.No wind70%30.10 "Hg10 mi
10:52 pm66 °FPassing clouds.No wind63%30.09 "Hg10 mi
9:52 pm74 °FPassing clouds.7 mph45%30.08 "Hg10 mi
8:52 pm77 °FPassing clouds.8 mph39%30.06 "Hg10 mi
7:52 pm79 °FScattered clouds.10 mph38%30.06 "Hg10 mi
6:52 pm81 °FScattered clouds.10 mph35%30.05 "Hg10 mi
5:52 pm83 °FScattered clouds.12 mph34%30.03 "Hg10 mi
4:52 pm84 °FPassing clouds.13 mph33%30.02 "Hg10 mi
3:52 pm83 °FScattered clouds.12 mph34%30.02 "Hg10 mi
2:52 pm82 °FScattered clouds.14 mph35%30.02 "Hg10 mi
1:52 pm81 °FScattered clouds.16 mph38%30.04 "Hg10 mi
12:52 pm78 °FPassing clouds.9 mph42%30.05 "Hg10 mi
11:52 am76 °FScattered clouds.12 mph45%30.06 "Hg10 mi
10:52 am75 °FPassing clouds.12 mph47%30.05 "Hg10 mi
9:52 am74 °FPassing clouds.12 mph48%30.05 "Hg10 mi
8:52 am73 °FPassing clouds.9 mph48%30.04 "Hg10 mi
7:52 am72 °FPassing clouds.10 mph52%30.03 "Hg10 mi
6:52 am71 °FPassing clouds.14 mph57%30.00 "Hg10 mi
5:52 am72 °FPassing clouds.12 mph73%29.96 "Hg10 mi
Weather by CustomWeather, © 2019

See weather overview